OM6ACB-6 Weather Reports


Display with metric or nautical units.
time (UTC)temp
F
wind
direction
speed
MPH
gust
MPH
rain 1hr
in
rain 24hr
in
rain mn
in
humidity
%
barometer
mb
20260831203254 62 166 0.0 2.0 0.00 0.01 0.01 24 1019.5
20260831202254 61 0 0.0 0.0 0.00 0.01 0.01 27 1019.1
20260831201254 61 315 0.0 0.0 0.00 0.01 0.01 27 1019.2
20260831200253 62 314 0.0 1.0 0.00 0.01 0.01 24 1019.6
20260831195253 63 181 0.0 3.0 0.00 0.01 0.01 24 1019.6
20260831194253 63 0 0.0 0.0 0.00 0.01 0.01 24 1019.4
20260831193253 62 0 0.0 0.0 0.00 0.01 0.01 24 1019.4
20260831192252 63 314 0.0 1.0 0.00 0.01 0.01 24 1019.4
20260831191252 63 0 0.0 0.0 0.00 0.01 0.01 24 1019.4
20260831190252 63 1 0.0 2.0 0.00 0.01 0.01 24 1019.3
20260831185251 66 207 0.0 3.0 0.00 0.01 0.01 23 1019.6
20260831184251 67 225 0.0 3.0 0.00 0.01 0.01 23 1019.5
20260831183251 66 270 0.0 2.0 0.00 0.01 0.01 23 1019.3
20260831182250 67 225 0.0 2.0 0.00 0.01 0.01 23 1019.4
20260831181250 69 257 0.0 2.0 0.00 0.01 0.01 22 1019.5
20260831180250 69 33 0.0 1.0 0.00 0.01 0.01 22 1019.4
20260831175250 69 90 0.0 0.0 0.00 0.01 0.01 22 1019.3
20260831174249 70 0 0.0 0.0 0.00 0.01 0.01 22 1019.3
20260831173251 70 0 0.0 0.0 0.00 0.01 0.01 22 1019.4
20260831172250 71 0 0.0 0.0 0.00 0.01 0.01 22 1019.4
20260831171248 71 0 0.0 0.0 0.00 0.01 0.01 22 1019.4
20260831170248 71 0 0.0 0.0 0.00 0.01 0.01 22 1019.3
20260831165248 72 1 0.0 3.0 0.00 0.01 0.01 21 1019.4
20260831164248 73 1 0.0 1.0 0.00 0.01 0.01 21 1019.4
20260831163247 73 123 0.0 2.0 0.00 0.01 0.01 21 1019.4
20260831162247 74 273 1.0 4.0 0.00 0.01 0.01 21 1019.3
20260831161247 75 242 2.0 5.0 0.00 0.01 0.01 21 1019.3
20260831160246 74 224 1.0 4.0 0.00 0.01 0.01 21 1019.2
20260831155246 73 228 2.0 4.0 0.00 0.01 0.01 21 1019.2
20260831154246 74 186 3.0 6.0 0.00 0.01 0.01 21 1019.1
20260831153245 74 182 3.0 5.0 0.00 0.01 0.01 21 1019.2
20260831152245 74 178 2.0 4.0 0.00 0.01 0.01 21 1019.2
20260831151245 78 185 2.0 4.0 0.00 0.01 0.01 20 1019.7
20260831150245 77 182 2.0 3.0 0.01 0.01 0.01 20 1019.7
20260831145245 77 179 3.0 4.0 0.01 0.01 0.01 20 1019.8
20260831144244 78 192 3.0 4.0 0.01 0.01 0.01 20 1019.7
20260831143244 74 185 1.0 3.0 0.01 0.01 0.01 21 1019.5
20260831142243 72 157 3.0 4.0 0.01 0.01 0.01 21 1019.5
20260831141243 72 130 3.0 20.0 0.00 0.00 0.00 22 1019.4
20260831140243 77 99 2.0 4.0 0.00 0.00 0.00 20 1019.5
20260831135243 82 151 1.0 4.0 0.00 0.00 0.00 20 1019.8
20260831134242 82 88 3.0 8.0 0.00 0.00 0.00 20 1019.8
20260831133242 83 79 3.0 5.0 0.00 0.00 0.00 20 1019.9
20260831132242 83 99 3.0 6.0 0.00 0.00 0.00 20 1019.9
20260831131241 85 111 2.0 5.0 0.00 0.00 0.00 20 1020.1
20260831130241 85 108 2.0 6.0 0.00 0.00 0.00 20 1020.3
20260831125241 85 70 3.0 6.0 0.00 0.00 0.00 20 1020.2
20260831124240 87 62 4.0 6.0 0.00 0.00 0.00 20 1020.4
20260831123240 90 90 5.0 8.0 0.00 0.00 0.00 20 1020.9
20260831122240 88 89 3.0 6.0 0.00 0.00 0.00 20 1020.7
20260831121240 91 99 4.0 8.0 0.00 0.00 0.00 20 1021.1
20260831120239 86 74 3.0 8.0 0.00 0.00 0.00 20 1020.9
20260831115239 85 111 6.0 9.0 0.00 0.00 0.00 20 1020.9
20260831114239 87 108 5.0 9.0 0.00 0.00 0.00 20 1021.1
20260831113238 84 96 6.0 10.0 0.00 0.00 0.00 20 1020.9
20260831112238 84 96 3.0 9.0 0.00 0.00 0.00 20 1020.8
20260831111238 83 170 3.0 9.0 0.00 0.00 0.00 20 1020.9
20260831110238 83 37 4.0 8.0 0.00 0.00 0.00 20 1021.0
20260831105237 83 108 3.0 6.0 0.00 0.00 0.00 20 1021.1
20260831104237 84 84 3.0 8.0 0.00 0.00 0.00 20 1021.1
20260831103237 90 70 4.0 7.0 0.00 0.00 0.00 20 1021.6
20260831102236 86 112 4.0 8.0 0.00 0.00 0.00 20 1021.4
20260831101236 86 94 3.0 5.0 0.00 0.00 0.00 20 1021.4
20260831100236 86 63 5.0 8.0 0.00 0.00 0.00 20 1021.3
20260831095236 92 80 3.0 5.0 0.00 0.00 0.00 20 1021.8
20260831094235 89 92 2.0 7.0 0.00 0.00 0.00 20 1021.8
20260831093235 86 65 1.0 4.0 0.00 0.00 0.00 20 1021.5
20260831092235 85 66 2.0 4.0 0.00 0.00 0.00 20 1021.5
20260831091234 85 63 2.0 4.0 0.00 0.00 0.00 20 1021.7
20260831090234 83 93 2.0 5.0 0.00 0.00 0.00 20 1021.7
20260831085234 81 27 2.0 6.0 0.00 0.00 0.00 20 1021.4
20260831084234 83 304 0.0 2.0 0.00 0.00 0.00 20 1021.7
20260831083233 78 333 2.0 3.0 0.00 0.00 0.00 20 1021.3
20260831082233 79 349 1.0 4.0 0.00 0.00 0.00 20 1021.4
20260831081233 75 324 2.0 4.0 0.00 0.00 0.00 21 1021.2
20260831080232 74 325 2.0 4.0 0.00 0.00 0.00 21 1021.4
20260831075232 76 319 1.0 4.0 0.00 0.00 0.00 20 1021.2
20260831074232 76 336 0.0 2.0 0.00 0.00 0.00 20 1021.5
20260831073231 73 321 1.0 3.0 0.00 0.00 0.00 21 1021.2
20260831072231 72 325 1.0 3.0 0.00 0.00 0.00 21 1021.1
20260831071231 76 78 0.0 3.0 0.00 0.00 0.00 20 1021.6
20260831070231 71 323 0.0 2.0 0.00 0.00 0.00 22 1021.2
20260831065230 68 329 1.0 2.0 0.00 0.00 0.00 22 1021.0
20260831064230 70 345 1.0 3.0 0.00 0.00 0.00 22 1021.2
20260831063230 67 351 0.0 3.0 0.00 0.00 0.00 23 1021.1
20260831062229 67 128 0.0 2.0 0.00 0.00 0.00 23 1021.2
20260831061229 66 11 0.0 2.0 0.00 0.00 0.00 23 1021.1
20260831060229 67 78 0.0 2.0 0.00 0.00 0.00 23 1021.1
20260831055229 66 53 0.0 2.0 0.00 0.00 0.00 23 1021.1
20260831054228 65 1 0.0 1.0 0.00 0.00 0.00 23 1021.0
20260831053228 64 1 0.0 0.0 0.00 0.00 0.00 24 1020.9
20260831052228 62 0 0.0 0.0 0.00 0.00 0.00 24 1020.7
20260831051227 60 0 0.0 0.0 0.00 0.00 0.00 25 1020.6
20260831050227 62 0 0.0 0.0 0.00 0.00 0.00 24 1020.8
20260831045227 55 0 0.0 0.0 0.00 0.00 0.00 26 1020.3
20260831044226 54 0 0.0 0.0 0.00 0.00 0.00 26 1020.1
20260831043226 53 0 0.0 0.0 0.00 0.00 0.00 42 1020.0
20260831042226 51 0 0.0 0.0 0.00 0.00 0.00 60 1019.9
20260831041226 51 0 0.0 0.0 0.00 0.00 0.00 61 1019.8
20260831040225 49 0 0.0 0.0 0.00 0.00 0.00 62 1019.6
20260831035225 50 0 0.0 0.0 0.00 0.00 0.00 62 1019.5
20260831034225 50 0 0.0 0.0 0.00 0.00 0.00 62 1019.5
20260831033224 50 0 0.0 0.0 0.00 0.00 0.00 60 1019.6
20260831032224 51 0 0.0 0.0 0.00 0.00 0.00 61 1019.6
20260831031224 50 0 0.0 0.0 0.00 0.00 0.00 60 1019.7
20260831030224 51 0 0.0 0.0 0.00 0.00 0.00 60 1019.8
20260831025223 50 0 0.0 0.0 0.00 0.00 0.00 59 1019.9
20260831024223 50 0 0.0 0.0 0.00 0.00 0.00 59 1020.0
20260831023223 51 0 0.0 0.0 0.00 0.00 0.00 57 1020.0
20260831022222 51 0 0.0 0.0 0.00 0.00 0.00 57 1020.0
20260831021222 52 0 0.0 0.0 0.00 0.00 0.00 55 1020.0
20260831020222 52 0 0.0 0.0 0.00 0.00 0.00 55 1020.0
20260831015222 52 0 0.0 0.0 0.00 0.00 0.00 55 1020.0
20260831014221 53 0 0.0 0.0 0.00 0.00 0.00 57 1020.1
20260831013221 53 0 0.0 0.0 0.00 0.00 0.00 58 1020.0
20260831012221 52 0 0.0 0.0 0.00 0.00 0.00 57 1020.0
20260831011220 51 0 0.0 0.0 0.00 0.00 0.00 54 1020.0
20260831010220 52 0 0.0 0.0 0.00 0.00 0.00 56 1020.1
20260831005220 53 0 0.0 0.0 0.00 0.00 0.00 57 1020.1
20260831004219 53 0 0.0 0.0 0.00 0.00 0.00 58 1020.3
20260831003219 53 0 0.0 0.0 0.00 0.00 0.00 57 1020.2
20260831002219 53 0 0.0 0.0 0.00 0.00 0.00 53 1020.2
20260831001219 53 0 0.0 0.0 0.00 0.00 0.00 53 1020.3
20260831000218 54 0 0.0 0.0 0.00 0.00 0.00 49 1020.3
20260830235218 54 0 0.0 0.0 0.00 0.00 0.00 49 1020.3
20260830234218 53 0 0.0 0.0 0.00 0.00 0.00 48 1020.3
20260830233217 53 0 0.0 0.0 0.00 0.00 0.00 45 1020.3
20260830232217 54 0 0.0 0.0 0.00 0.00 0.00 40 1020.3
20260830231217 54 0 0.0 0.0 0.00 0.00 0.00 40 1020.4
20260830230217 54 0 0.0 0.0 0.00 0.00 0.00 38 1020.4
20260830225216 54 0 0.0 0.0 0.00 0.00 0.00 36 1020.5
20260830224216 55 0 0.0 0.0 0.00 0.00 0.00 35 1020.5
20260830223216 54 0 0.0 0.0 0.00 0.00 0.00 33 1020.5
20260830222215 55 0 0.0 0.0 0.00 0.00 0.00 36 1020.5
20260830221215 55 0 0.0 0.0 0.00 0.00 0.00 37 1020.6
20260830220215 55 0 0.0 0.0 0.00 0.00 0.00 34 1020.5
20260830215215 55 0 0.0 0.0 0.00 0.00 0.00 32 1020.6
20260830214214 56 0 0.0 0.0 0.00 0.00 0.00 29 1020.5
20260830213214 56 0 0.0 0.0 0.00 0.00 0.00 28 1020.5
20260830212214 56 0 0.0 0.0 0.00 0.00 0.00 27 1020.5
20260830211213 57 0 0.0 0.0 0.00 0.00 0.00 27 1020.5
20260830210213 57 0 0.0 0.0 0.00 0.00 0.00 27 1020.5
20260830205213 57 0 0.0 0.0 0.00 0.00 0.00 26 1020.4